• In Uzbekistan
  • List of Countries
  • For 7 days
  • Water Temperature
  • Satellite Maps
  • Weather Map
  • Weather Widgets
  • user-avatar
    Login

    Hourly Weather San Luis

    Today, 27 June, Tuesday

    Time Temperature Precipitation Wind Pressure Humidity
    00:00 +8°C° 0.3 mm 5 mps 698 mmHg 89%
    01:00 +8°C° 0.3 mm 5 mps 698 mmHg 89%
    02:00 +7°C° 0.3 mm 5 mps 698 mmHg 89%
    03:00 +7°C° 0.2 mm 5 mps 698 mmHg 90%
    04:00 +7°C° 0.2 mm 5 mps 698 mmHg 90%
    05:00 +7°C° 0.2 mm 4 mps 699 mmHg 91%
    06:00 +7°C° 0.1 mm 5 mps 699 mmHg 90%
    07:00 +7°C° 0.1 mm 5 mps 700 mmHg 90%
    08:00 +7°C° 0.1 mm 5 mps 701 mmHg 90%
    09:00 +8°C° 0.1 mm 5 mps 701 mmHg 88%
    10:00 +8°C° 0.1 mm 6 mps 702 mmHg 86%
    11:00 +8°C° 0.1 mm 6 mps 702 mmHg 84%
    12:00 +8°C° 0.1 mm 6 mps 702 mmHg 84%
    13:00 +8°C° 0.1 mm 6 mps 702 mmHg 83%
    14:00 +8°C° 0.1 mm 6 mps 702 mmHg 82%
    15:00 +8°C° 0 mm 5 mps 703 mmHg 82%
    16:00 +7°C° 0 mm 5 mps 703 mmHg 81%
    17:00 +7°C° 0 mm 4 mps 703 mmHg 81%
    18:00 +7°C° 0 mm 4 mps 703 mmHg 82%
    19:00 +7°C° 0 mm 4 mps 704 mmHg 83%
    20:00 +7°C° 0 mm 3 mps 704 mmHg 84%
    21:00 +7°C° 0 mm 3 mps 704 mmHg 85%
    22:00 +7°C° 0 mm 2 mps 704 mmHg 86%
    23:00 +8°C° 0 mm 1 mps 704 mmHg 87%

    Tomorrow, 28 June, Wednesday

    Time Temperature Precipitation Wind Pressure Humidity
    00:00 +7°C° 0 mm 1 mps 704 mmHg 89%
    01:00 +7°C° 0 mm 1 mps 704 mmHg 91%
    02:00 +6°C° 0 mm 1 mps 703 mmHg 93%
    03:00 +6°C° 0 mm 1 mps 703 mmHg 93%
    04:00 +6°C° 0 mm 1 mps 702 mmHg 93%
    05:00 +5°C° 0 mm 1 mps 702 mmHg 93%
    06:00 +5°C° 0 mm 1 mps 702 mmHg 92%
    07:00 +5°C° 0 mm 1 mps 702 mmHg 91%
    08:00 +5°C° 0 mm 1 mps 702 mmHg 90%
    09:00 +8°C° 0 mm 1 mps 703 mmHg 79%
    10:00 +10°C° 0 mm 1 mps 703 mmHg 68%
    11:00 +12°C° 0 mm 1 mps 703 mmHg 58%
    12:00 +13°C° 0 mm 1 mps 703 mmHg 54%
    13:00 +14°C° 0 mm 1 mps 702 mmHg 50%
    14:00 +15°C° 0 mm 1 mps 701 mmHg 46%
    15:00 +14°C° 0 mm 1 mps 701 mmHg 51%
    16:00 +14°C° 0 mm 1 mps 700 mmHg 55%
    17:00 +13°C° 0 mm 1 mps 700 mmHg 59%
    18:00 +12°C° 0 mm 1 mps 700 mmHg 63%
    19:00 +11°C° 0 mm 1 mps 700 mmHg 67%
    20:00 +9°C° 0 mm 1 mps 700 mmHg 71%
    21:00 +9°C° 0 mm 1 mps 700 mmHg 70%
    22:00 +8°C° 0 mm 2 mps 700 mmHg 69%
    23:00 +8°C° 0 mm 2 mps 700 mmHg 68%

    Day after tomorrow, 29 June, Thursday

    Time Temperature Precipitation Wind Pressure Humidity
    00:00 +8°C° 0 mm 2 mps 700 mmHg 66%
    01:00 +8°C° 0 mm 3 mps 700 mmHg 65%
    02:00 +8°C° 0 mm 3 mps 700 mmHg 63%
    03:00 +7°C° 0 mm 4 mps 700 mmHg 64%
    04:00 +7°C° 0 mm 4 mps 700 mmHg 65%
    05:00 +6°C° 0 mm 4 mps 699 mmHg 66%
    06:00 +6°C° 0 mm 4 mps 700 mmHg 67%
    07:00 +6°C° 0 mm 4 mps 700 mmHg 69%
    08:00 +6°C° 0 mm 4 mps 701 mmHg 70%
    09:00 +10°C° 0 mm 4 mps 701 mmHg 61%
    10:00 +12°C° 0 mm 4 mps 702 mmHg 51%
    11:00 +15°C° 0 mm 4 mps 702 mmHg 42%
    12:00 +17°C° 0 mm 3 mps 702 mmHg 38%
    13:00 +17°C° 0 mm 3 mps 701 mmHg 33%
    14:00 +18°C° 0 mm 3 mps 701 mmHg 29%
    15:00 +17°C° 0 mm 2 mps 700 mmHg 34%
    16:00 +16°C° 0 mm 2 mps 700 mmHg 38%
    17:00 +15°C° 0 mm 2 mps 699 mmHg 42%
    18:00 +14°C° 0 mm 2 mps 699 mmHg 45%
    19:00 +13°C° 0 mm 2 mps 699 mmHg 48%
    20:00 +11°C° 0 mm 3 mps 699 mmHg 51%
    21:00 +10°C° 0 mm 3 mps 699 mmHg 51%
    22:00 +10°C° 0 mm 3 mps 699 mmHg 51%
    23:00 +10°C° 0 mm 3 mps 699 mmHg 51%

    30 June, Friday

    Time Temperature Precipitation Wind Pressure Humidity
    00:00 +10°C° 0 mm 3 mps 699 mmHg 47%
    01:00 +10°C° 0 mm 4 mps 699 mmHg 44%
    02:00 +10°C° 0 mm 5 mps 699 mmHg 40%
    03:00 +10°C° 0 mm 4 mps 699 mmHg 45%
    04:00 +8°C° 0 mm 4 mps 699 mmHg 50%
    05:00 +8°C° 0 mm 3 mps 699 mmHg 55%
    06:00 +8°C° 0 mm 2 mps 700 mmHg 56%
    07:00 +8°C° 0 mm 2 mps 701 mmHg 58%
    08:00 +8°C° 0 mm 1 mps 701 mmHg 59%
    09:00 +11°C° 0 mm 1 mps 702 mmHg 51%
    10:00 +14°C° 0 mm 1 mps 703 mmHg 42%
    11:00 +16°C° 0 mm 1 mps 704 mmHg 34%
    12:00 +17°C° 0 mm 2 mps 704 mmHg 33%
    13:00 +17°C° 0 mm 2 mps 704 mmHg 32%
    14:00 +18°C° 0 mm 2 mps 704 mmHg 31%
    15:00 +17°C° 0 mm 3 mps 704 mmHg 36%
    16:00 +16°C° 0 mm 3 mps 704 mmHg 40%
    17:00 +14°C° 0 mm 3 mps 704 mmHg 45%
    18:00 +13°C° 0 mm 4 mps 704 mmHg 50%
    19:00 +12°C° 0 mm 4 mps 704 mmHg 54%
    20:00 +11°C° 0 mm 4 mps 705 mmHg 58%
    21:00 +10°C° 0 mm 4 mps 705 mmHg 59%
    22:00 +10°C° 0 mm 4 mps 705 mmHg 61%
    23:00 +9°C° 0 mm 3 mps 706 mmHg 62%

    1 July, Saturday

    Time Temperature Precipitation Wind Pressure Humidity
    00:00 +9°C° 0 mm 3 mps 705 mmHg 62%
    01:00 +9°C° 0 mm 3 mps 705 mmHg 62%
    02:00 +9°C° 0 mm 3 mps 705 mmHg 62%
    03:00 +9°C° 0 mm 3 mps 705 mmHg 62%
    04:00 +8°C° 0 mm 3 mps 705 mmHg 62%
    05:00 +8°C° 0 mm 3 mps 705 mmHg 62%
    06:00 +8°C° 0 mm 3 mps 705 mmHg 64%
    07:00 +8°C° 0 mm 3 mps 705 mmHg 67%
    08:00 +8°C° 0 mm 3 mps 705 mmHg 69%
    09:00 +10°C° 0 mm 4 mps 706 mmHg 63%
    10:00 +13°C° 0 mm 5 mps 706 mmHg 57%
    11:00 +15°C° 0 mm 5 mps 707 mmHg 51%
    12:00 +16°C° 0 mm 5 mps 706 mmHg 49%
    13:00 +17°C° 0 mm 6 mps 705 mmHg 46%
    14:00 +19°C° 0 mm 6 mps 705 mmHg 43%
    15:00 +17°C° 0 mm 5 mps 704 mmHg 45%
    16:00 +16°C° 0 mm 5 mps 704 mmHg 47%
    17:00 +15°C° 0 mm 4 mps 703 mmHg 50%
    18:00 +14°C° 0 mm 4 mps 704 mmHg 54%
    19:00 +12°C° 0 mm 4 mps 704 mmHg 58%
    20:00 +11°C° 0 mm 4 mps 704 mmHg 62%
    21:00 +10°C° 0 mm 5 mps 704 mmHg 63%
    22:00 +10°C° 0 mm 5 mps 704 mmHg 63%
    23:00 +10°C° 0 mm 6 mps 704 mmHg 64%

    2 July, Sunday

    Time Temperature Precipitation Wind Pressure Humidity
    00:00 +10°C° 0 mm 7 mps 704 mmHg 62%
    01:00 +10°C° 0 mm 7 mps 704 mmHg 61%
    02:00 +9°C° 0 mm 8 mps 703 mmHg 60%
    03:00 +9°C° 0 mm 8 mps 703 mmHg 62%
    04:00 +9°C° 0 mm 7 mps 703 mmHg 64%
    05:00 +9°C° 0 mm 7 mps 703 mmHg 67%
    06:00 +9°C° 0 mm 7 mps 703 mmHg 68%
    07:00 +9°C° 0 mm 7 mps 704 mmHg 69%
    08:00 +9°C° 0 mm 8 mps 704 mmHg 70%
    09:00 +11°C° 0 mm 8 mps 704 mmHg 65%
    10:00 +13°C° 0 mm 9 mps 705 mmHg 59%
    11:00 +16°C° 0 mm 10 mps 705 mmHg 54%
    12:00 +16°C° 0 mm 10 mps 704 mmHg 52%
    13:00 +17°C° 0 mm 10 mps 704 mmHg 50%
    14:00 +18°C° 0 mm 10 mps 703 mmHg 47%
    15:00 +17°C° 0 mm 9 mps 703 mmHg 51%
    16:00 +16°C° 0 mm 9 mps 703 mmHg 55%
    17:00 +15°C° 0 mm 8 mps 702 mmHg 60%
    18:00 +15°C° 0 mm 8 mps 702 mmHg 63%
    19:00 +13°C° 0 mm 9 mps 702 mmHg 67%
    20:00 +12°C° 0 mm 9 mps 703 mmHg 70%
    21:00 +12°C° 0 mm 9 mps 702 mmHg 70%
    22:00 +12°C° 0 mm 10 mps 702 mmHg 69%
    23:00 +12°C° 0 mm 10 mps 702 mmHg 68%
    Show more